Radiation Dose at Monitoring Post of Fukushima Daini Nuclear Power Station
Date,Time,MP-1(microSv/h),MP-2(microSv/h),MP-3(microSv/h),MP-4(microSv/h),MP-5(microSv/h),MP-6(microSv/h),MP-7(microSv/h),Wind Direction,Wind Velocity(m/s),Rain
2017/04/26,00:00,0.378,0.230,0.399,0.368,0.330,0.193,0.167,south-southwest,10.0,No
2017/04/26,00:10,0.379,0.232,0.398,0.368,0.331,0.192,0.166,south-southwest,8.3,No
2017/04/26,00:20,0.381,0.232,0.399,0.368,0.333,0.192,0.167,south-southwest,7.0,No
2017/04/26,00:30,0.378,0.231,0.398,0.369,0.330,0.192,0.165,south-southwest,6.4,No
2017/04/26,00:40,0.377,0.232,0.398,0.368,0.332,0.194,0.166,south-southwest,6.3,No
2017/04/26,00:50,0.378,0.232,0.398,0.369,0.330,0.192,0.166,south-southwest,5.7,No
2017/04/26,01:00,0.378,0.231,0.398,0.366,0.330,0.192,0.167,south-southwest,5.6,No
2017/04/26,01:10,0.380,0.232,0.400,0.368,0.332,0.192,0.165,south-southwest,5.5,No
2017/04/26,01:20,0.377,0.232,0.398,0.368,0.330,0.192,0.167,south,3.6,No
2017/04/26,01:30,0.379,0.231,0.398,0.368,0.332,0.193,0.167,south-southwest,3.4,No
2017/04/26,01:40,0.377,0.232,0.399,0.370,0.330,0.194,0.165,south-southwest,1.6,No
2017/04/26,01:50,0.379,0.231,0.397,0.367,0.330,0.192,0.167,south,4.0,No
2017/04/26,02:00,0.379,0.231,0.400,0.369,0.331,0.191,0.166,south,3.9,No
2017/04/26,02:10,0.377,0.232,0.397,0.368,0.329,0.193,0.166,south-southwest,5.8,No
2017/04/26,02:20,0.378,0.231,0.397,0.368,0.332,0.193,0.167,south-southwest,6.3,No
2017/04/26,02:30,0.378,0.230,0.400,0.371,0.330,0.193,0.166,south-southwest,6.5,No
2017/04/26,02:40,0.379,0.232,0.395,0.368,0.332,0.192,0.166,south-southwest,6.5,No
2017/04/26,02:50,0.378,0.231,0.398,0.369,0.331,0.193,0.166,south-southwest,7.5,No
2017/04/26,03:00,0.379,0.231,0.398,0.369,0.331,0.193,0.166,southwest,7.8,No
2017/04/26,03:10,0.378,0.233,0.399,0.369,0.332,0.192,0.166,southwest,7.7,No
2017/04/26,03:20,0.378,0.231,0.399,0.370,0.331,0.193,0.167,south-southwest,6.4,No
2017/04/26,03:30,0.379,0.231,0.397,0.367,0.331,0.193,0.166,south-southwest,7.5,No
2017/04/26,03:40,0.378,0.231,0.399,0.370,0.330,0.192,0.167,south-southwest,7.8,No
2017/04/26,03:50,0.379,0.231,0.398,0.368,0.331,0.193,0.166,south-southwest,7.3,No
2017/04/26,04:00,0.379,0.230,0.399,0.368,0.331,0.193,0.166,south-southwest,8.5,No
2017/04/26,04:10,0.378,0.231,0.399,0.370,0.330,0.192,0.167,south-southwest,8.4,No
2017/04/26,04:20,0.380,0.232,0.398,0.368,0.332,0.193,0.166,south-southwest,7.9,No
2017/04/26,04:30,0.377,0.231,0.400,0.369,0.331,0.193,0.166,south-southwest,7.2,No
2017/04/26,04:40,0.379,0.231,0.399,0.368,0.331,0.193,0.167,southwest,6.2,No
2017/04/26,04:50,0.378,0.230,0.397,0.367,0.333,0.193,0.166,southwest,5.9,No
2017/04/26,05:00,0.378,0.230,0.397,0.370,0.329,0.192,0.166,southwest,7.5,No
2017/04/26,05:10,0.380,0.232,0.397,0.368,0.332,0.192,0.166,south-southwest,7.5,No
2017/04/26,05:20,0.378,0.232,0.398,0.370,0.331,0.193,0.167,south-southwest,5.4,No
2017/04/26,05:30,0.379,0.230,0.398,0.368,0.331,0.193,0.167,south-southwest,6.0,No
2017/04/26,05:40,0.378,0.231,0.396,0.368,0.332,0.192,0.166,south-southwest,6.7,No
2017/04/26,05:50,0.377,0.231,0.397,0.367,0.329,0.192,0.166,south-southwest,6.4,No
2017/04/26,06:00,0.380,0.230,0.395,0.366,0.333,0.192,0.166,south-southwest,8.3,No
2017/04/26,06:10,0.379,0.231,0.398,0.368,0.329,0.193,0.167,south-southwest,8.7,No
2017/04/26,06:20,0.380,0.230,0.397,0.366,0.332,0.192,0.166,south-southwest,9.2,No
2017/04/26,06:30,0.377,0.231,0.396,0.369,0.330,0.194,0.167,south-southwest,8.8,No
2017/04/26,06:40,0.380,0.232,0.398,0.367,0.331,0.193,0.167,south-southwest,7.4,No
2017/04/26,06:50,0.378,0.231,0.397,0.368,0.331,0.193,0.166,south-southwest,7.9,No
2017/04/26,07:00,0.380,0.231,0.398,0.367,0.329,0.192,0.166,south-southwest,9.0,No
2017/04/26,07:10,0.376,0.230,0.395,0.369,0.331,0.192,0.167,south-southwest,11.0,No
2017/04/26,07:20,0.378,0.229,0.398,0.367,0.330,0.192,0.165,south-southwest,10.4,No
2017/04/26,07:30,0.377,0.232,0.396,0.368,0.331,0.192,0.166,south-southwest,8.2,No
2017/04/26,07:40,0.378,0.230,0.400,0.366,0.330,0.193,0.166,south-southwest,9.7,No
2017/04/26,07:50,0.377,0.231,0.395,0.368,0.331,0.193,0.167,south-southwest,11.0,No
2017/04/26,08:00,0.378,0.230,0.399,0.366,0.329,0.193,0.165,south-southwest,9.4,No
2017/04/26,08:10,0.376,0.230,0.396,0.368,0.329,0.192,0.167,south-southwest,9.3,No
2017/04/26,08:20,0.378,0.230,0.398,0.365,0.331,0.192,0.166,south-southwest,9.8,No
2017/04/26,08:30,0.378,0.231,0.396,0.371,0.327,0.193,0.165,south-southwest,7.5,No
2017/04/26,08:40,0.376,0.231,0.399,0.366,0.332,0.191,0.166,south-southwest,7.4,No
2017/04/26,08:50,0.380,0.231,0.398,0.367,0.330,0.193,0.165,south-southwest,10.4,No
2017/04/26,09:00,0.375,0.231,0.397,0.367,0.329,0.192,0.167,south-southwest,5.6,No
2017/04/26,09:10,0.379,0.231,0.399,0.366,0.330,0.193,0.166,south-southwest,8.1,No
2017/04/26,09:20,0.379,0.231,0.395,0.368,0.327,0.193,0.166,southwest,7.7,No
2017/04/26,09:30,0.376,0.231,0.399,0.366,0.332,0.193,0.168,south-southwest,9.9,No
2017/04/26,09:40,0.380,0.230,0.395,0.368,0.330,0.193,0.165,south-southwest,8.1,No
2017/04/26,09:50,0.379,0.231,0.400,0.368,0.329,0.192,0.167,south-southwest,8.9,No
2017/04/26,10:00,0.378,0.231,0.397,0.367,0.332,0.193,0.167,south-southwest,8.2,No
2017/04/26,10:10,0.381,0.229,0.397,0.370,0.328,0.193,0.166,south-southwest,8.4,No
2017/04/26,10:20,0.376,0.231,0.398,0.366,-,0.192,0.166,south-southwest,8.6,No
2017/04/26,10:30,0.380,0.230,0.396,0.368,-,0.193,0.165,south-southwest,8.3,No
2017/04/26,10:40,0.380,0.231,0.400,0.367,-,0.192,0.167,south-southwest,10.4,No
2017/04/26,10:50,0.376,0.231,0.397,0.366,-,0.194,0.167,south-southwest,8.8,No
2017/04/26,11:00,0.381,0.231,0.398,0.370,-,0.193,0.166,south-southwest,7.7,No
2017/04/26,11:10,0.376,0.232,0.398,0.365,0.330,0.194,0.167,south-southwest,8.2,No
2017/04/26,11:20,0.379,0.229,0.396,0.370,0.333,0.193,0.166,south,10.3,No
2017/04/26,11:30,0.379,0.231,0.399,0.368,0.330,0.193,-,south,10.0,No
2017/04/26,11:40,0.377,0.231,0.395,0.368,0.332,0.193,-,south,11.5,No
2017/04/26,11:50,0.379,0.230,0.400,0.369,0.329,0.192,-,south,11.0,No
2017/04/26,12:00,0.378,0.230,0.397,0.367,0.329,0.193,-,south,12.3,No
2017/04/26,12:10,0.378,0.230,0.397,0.370,0.333,0.191,-,south,11.6,No
2017/04/26,12:20,0.380,0.232,0.401,0.365,0.328,0.193,0.168,south,10.1,No
2017/04/26,12:30,0.376,0.231,0.396,0.368,0.331,0.194,0.167,south,11.5,No
2017/04/26,12:40,0.381,0.230,0.397,0.369,0.331,0.192,0.166,south,11.8,No
2017/04/26,12:50,0.379,0.232,0.399,0.365,0.328,0.192,0.166,south,11.3,No
2017/04/26,13:00,0.376,0.231,0.396,0.369,0.333,0.193,0.166,south,10.4,No
2017/04/26,13:10,0.381,0.231,0.395,0.368,0.331,0.192,0.167,south-southwest,12.0,No
2017/04/26,13:20,0.380,0.233,0.401,0.367,0.329,0.194,0.165,south,12.4,No
2017/04/26,13:30,0.376,0.231,0.398,0.369,0.327,0.193,0.167,south,11.9,No
2017/04/26,13:40,0.381,0.231,0.394,0.368,0.331,0.194,0.166,south,12.2,No
2017/04/26,13:50,0.378,0.232,0.398,0.366,0.328,0.194,0.167,south,13.2,No
2017/04/26,14:00,0.378,0.230,0.398,0.368,0.331,0.192,0.167,south,13.5,No
2017/04/26,14:10,0.382,0.230,0.396,-,0.332,0.194,0.166,south,13.7,No
2017/04/26,14:20,0.378,0.232,0.402,-,0.330,0.193,0.167,south,9.4,No
2017/04/26,14:30,0.380,0.230,0.397,-,0.333,0.193,0.166,south,8.4,No
2017/04/26,14:40,0.382,0.232,0.399,-,0.331,0.194,0.167,south-southwest,10.4,No
2017/04/26,14:50,0.375,0.230,0.399,0.368,0.328,0.192,0.165,south-southwest,9.8,No
2017/04/26,15:00,0.381,0.232,0.397,0.365,0.333,0.191,0.167,south-southwest,10.5,No
2017/04/26,15:10,0.378,0.231,0.399,0.369,0.330,0.191,0.167,south-southwest,7.0,No
2017/04/26,15:20,0.376,0.231,0.399,0.368,0.329,0.189,0.166,south,7.7,No
2017/04/26,15:30,0.381,0.231,0.397,0.369,0.332,-,0.167,south,7.6,No
2017/04/26,15:40,0.376,0.231,0.401,0.370,0.330,-,0.166,south,7.5,No
2017/04/26,15:50,0.379,0.233,0.398,0.367,0.330,-,0.168,south,6.7,No
2017/04/26,16:00,0.380,0.231,0.399,0.370,0.333,-,0.166,south-southwest,7.3,No
2017/04/26,16:10,0.377,0.232,0.399,0.366,0.329,-,0.167,south-southwest,7.9,No
2017/04/26,16:20,0.381,0.230,0.399,0.371,0.333,0.192,0.166,south,6.9,No
2017/04/26,16:30,0.377,0.232,0.399,0.367,0.333,0.193,0.167,south-southwest,8.2,No
2017/04/26,16:40,0.382,0.231,0.398,0.368,0.330,0.194,0.166,south-southwest,5.3,No
2017/04/26,16:50,0.379,0.233,0.401,0.369,0.332,0.193,0.166,south-southwest,4.5,No
2017/04/26,17:00,0.380,0.232,0.397,0.368,0.329,0.193,0.166,south-southwest,4.6,No
2017/04/26,17:10,0.379,0.232,0.401,0.371,0.333,0.193,0.168,south-southwest,4.8,No
2017/04/26,17:20,0.379,0.232,0.398,0.368,0.329,0.193,0.167,south-southwest,5.8,No
2017/04/26,17:30,0.381,0.234,0.400,0.372,0.332,0.193,0.166,south-southwest,4.8,No
2017/04/26,17:40,0.378,0.232,0.400,0.367,0.331,0.192,0.166,south-southwest,4.4,No
2017/04/26,17:50,0.381,0.231,0.400,0.371,0.330,0.193,0.166,south-southwest,3.3,No
2017/04/26,18:00,0.378,0.232,0.401,0.369,0.333,0.193,0.167,south-southwest,3.5,No
2017/04/26,18:10,0.382,0.231,0.399,0.372,0.330,0.193,0.168,southwest,3.1,No
2017/04/26,18:20,0.378,0.231,0.398,0.369,0.333,0.192,0.167,southwest,2.8,No
2017/04/26,18:30,0.381,0.233,0.399,0.371,0.331,0.193,0.167,southwest,2.5,No
2017/04/26,18:40,0.376,0.232,0.400,0.369,0.334,0.192,0.167,southwest,2.9,No
2017/04/26,18:50,0.380,0.233,0.399,0.371,0.329,0.192,0.167,southwest,3.6,No
2017/04/26,19:00,0.378,0.232,0.400,0.368,0.332,0.192,0.166,west-southwest,2.5,No
2017/04/26,19:10,0.381,0.231,0.400,0.370,0.328,0.193,0.167,west-northwest,2.9,No
2017/04/26,19:20,0.379,0.232,0.402,0.369,0.333,0.193,0.167,northwest,1.7,No
2017/04/26,19:30,0.381,0.232,0.399,0.370,0.331,0.194,0.167,north-northwest,1.9,No
2017/04/26,19:40,0.379,0.233,0.403,0.369,0.331,0.193,0.168,west-northwest,3.1,Yes
2017/04/26,19:50,0.381,0.232,0.399,0.369,0.330,0.194,0.167,west,2.5,Yes
2017/04/26,20:00,0.378,0.232,0.401,0.370,0.333,0.193,0.168,west,3.6,Yes
2017/04/26,20:10,0.382,0.232,0.400,0.371,0.331,0.195,0.167,west-southwest,2.8,No
2017/04/26,20:20,0.379,0.234,0.400,0.369,0.333,0.193,0.168,southwest,3.3,No
2017/04/26,20:30,0.381,0.232,0.399,0.370,0.332,0.194,0.167,southwest,3.2,No
2017/04/26,20:40,0.379,0.234,0.402,0.370,0.332,0.193,0.168,southwest,3.9,No
2017/04/26,20:50,0.381,0.232,0.400,0.369,0.331,0.193,0.168,west-southwest,4.1,No
2017/04/26,21:00,0.379,0.233,0.401,0.370,0.334,0.195,0.168,southwest,2.2,No
2017/04/26,21:10,0.380,0.233,0.399,0.369,0.334,0.194,0.167,southwest,2.6,No
2017/04/26,21:20,0.379,0.232,0.401,0.368,0.332,0.194,0.168,south,2.5,No
2017/04/26,21:30,0.382,0.233,0.402,0.371,0.332,0.194,0.167,south,3.6,No
2017/04/26,21:40,0.379,0.232,0.401,0.369,0.332,0.194,0.167,south,3.3,Yes
2017/04/26,21:50,0.381,0.232,0.402,0.372,0.331,0.193,0.167,south-southwest,4.3,Yes
2017/04/26,22:00,0.378,0.232,0.401,0.367,0.333,0.194,0.168,south-southwest,4.7,Yes
2017/04/26,22:10,0.380,0.233,0.402,0.371,0.330,0.194,0.167,southwest,3.2,Yes
2017/04/26,22:20,0.379,0.232,0.401,0.369,0.332,0.192,0.169,west-southwest,1.9,Yes
2017/04/26,22:30,0.381,0.233,0.402,0.371,0.331,0.194,0.168,west,1.7,Yes
2017/04/26,22:40,0.379,0.232,0.400,0.369,0.333,0.193,0.168,northwest,3.6,Yes
2017/04/26,22:50,0.382,0.231,0.402,0.373,0.330,0.193,0.167,northwest,2.5,Yes
2017/04/26,23:00,0.379,0.232,0.401,0.369,0.333,0.194,0.167,west-northwest,1.9,Yes
2017/04/26,23:10,0.381,0.232,0.402,0.371,0.330,0.195,0.168,north-northwest,1.4,Yes
2017/04/26,23:20,0.379,0.232,0.399,0.369,0.334,0.194,0.167,northwest,2.0,Yes
2017/04/26,23:30,0.381,0.233,0.401,0.370,0.330,0.194,0.168,west-northwest,3.3,Yes
2017/04/26,23:40,0.378,0.233,0.399,0.370,0.332,0.193,0.168,north-northwest,3.9,Yes
2017/04/26,23:50,0.382,0.233,0.403,0.371,0.330,0.194,0.169,north-northwest,5.0,Yes
